Location: ???????
(55.7000°N, 38.2167°E)
Time: 05:15:37
(UTC+00:00)

Daily predictions for brighter satellites

Satellite Brightness Start Highest point End
(mag) Time Altitude Azimuth Time Altitude Azimuth Time Altitude Azimuth
SL-16 R/B 4.3 00:25:34 20° NNE 00:25:34 20° NNE 00:27:44 10° NNE
USA 234 3.5 00:34:03 10° ENE 00:39:30 64° ENE 00:39:30 64° ENE
CZ-2D R/B 4.5 00:37:46 10° N 00:38:34 14° N 00:38:34 14° N
Lacrosse 5 rocket 4.4 00:50:16 11° ENE 00:50:16 11° ENE 00:50:26 10° ENE
CZ-4C R/B 3.1 00:49:29 46° E 00:49:29 46° E 00:54:31 10° NE
COSMOS 2455 4.0 00:52:15 34° N 00:52:49 35° NNE 00:58:19 10° E
SL-16 R/B 4.0 00:54:10 23° N 00:55:43 26° NNE 01:00:24 10° E
Cosmos 2237 Rocket 4.2 00:57:33 18° N 00:57:33 18° N 01:00:51 10° NNE
Cosmos 2360 Rocket 4.2 00:59:42 18° N 01:01:13 20° NNE 01:05:23 10° ENE
NOSS 3-4 (A) 4.2 01:07:14 45° N 01:08:07 47° NNE 01:15:01 10° E
NOSS 3-4 (C) 4.2 01:07:20 45° N 01:08:13 47° NNE 01:15:06 10° E
Cosmos 1980 Rocket 2.9 01:07:51 47° NNE 01:08:36 50° NE 01:14:09 10° ESE
Cosmos 2322 Rocket 4.0 01:06:40 22° N 01:08:39 26° NNE 01:13:23 10° E
Cosmos 2123 Rocket 4.3 01:08:09 10° N 01:14:18 64° ENE 01:20:27 10° SSE
SL-4 R/B 3.8 01:17:46 33° ESE 01:17:46 33° ESE 01:20:58 10° E
H-2A R/B 4.2 01:12:23 10° NNE 01:16:31 34° E 01:17:44 29° SE
Cosmos 2369 4.0 01:22:02 60° SE 01:22:02 60° SE 01:26:40 10° SSE
Cosmos 2333 Rocket 4.2 01:24:44 17° NNW 01:26:26 19° N 01:30:28 10° NE
Meteor 1-21 Rocket 4.2 01:28:29 85° NNE 01:28:29 85° NNE 01:34:09 10° NNE
Cosmos 2360 4.3 01:29:04 63° N 01:29:51 73° NE 01:35:35 10° SE
ARIANE 5 R/B 4.4 01:25:40 10° N 01:27:18 20° N 01:27:18 20° N
IDEFIX/ARIANE 42P 2.6 01:25:18 10° NNE 01:30:11 75° ENE 01:30:11 75° ENE
Cosmos 1821 Rocket 3.9 01:30:03 44° S 01:32:09 80° E 01:38:20 10° NNE
NOSS 2-2 (C) 4.4 01:33:07 60° N 01:33:49 66° NNE 01:40:44 10° ESE
Cosmos 2278 3.6 01:41:39 74° NW 01:42:12 88° WSW 01:47:57 10° SSE
ADEOS II 3.8 01:38:29 10° N 01:40:28 21° NNW 01:40:28 21° NNW
ATLAS 2AS CENTAUR R/B 3.3 01:45:14 33° NW 01:48:55 62° NNE 01:56:17 10° ESE
Cosmos 1697 Rocket 2.6 01:50:46 65° SW 01:50:46 65° SW 01:55:55 10° SSE
COSMOS 2406 3.3 01:51:29 39° SSW 01:53:40 74° ESE 01:59:27 10° NE
Cosmos 2285 Rocket 3.9 01:53:36 56° WSW 01:54:55 71° WNW 02:01:24 10° NNE
Cosmos 2219 Rocket 4.2 01:53:24 14° NNW 01:56:12 20° NNE 02:00:17 10° ENE
Cosmos 1535 Rocket 4.5 01:51:04 10° S 01:57:17 80° E 02:03:28 10° NNE
NOSS 2-1 (C) 3.7 01:57:51 57° E 01:57:51 57° E 02:01:21 10° NE
ATLAS 5 CENTAUR R/B 4.2 01:55:41 42° W 01:58:27 55° SW 02:25:35 10° SSE
NOSS 2-1 (D) 3.6 02:01:04 62° E 02:01:04 62° E 02:04:43 10° NE
Resurs 1-4 Rocket 4.4 01:58:47 10° NNW 01:59:11 11° NNW 01:59:11 11° NNW
Cosmos 2221 2.7 02:02:49 61° S 02:02:49 61° S 02:06:28 10° S
Meteor 2-12 Rocket 4.3 02:00:47 46° SW 02:02:32 65° WNW 02:08:42 10° N
NOSS 2-2 (E) 4.3 02:01:31 49° NW 02:03:15 90° S 02:10:40 10° SE
SL-16 R/B 4.0 02:07:27 16° NNW 02:08:47 18° N 02:12:34 10° NE
SL-24 R/B 4.2 02:07:06 10° N 02:12:07 77° W 02:16:54 10° SSW
COSMO-SKYMED 1 2.8 02:08:07 10° SSE 02:12:25 70° ENE 02:16:47 10° NNW
CZ-2C R/B 2.4 02:09:35 10° NNE 02:14:39 83° ESE 02:19:31 10° SSW
Cosmos 2082 Rocket 3.3 02:09:38 10° S 02:15:00 44° ESE 02:20:24 10° NE
Cosmos 968 Rocket 4.1 02:16:26 37° NW 02:16:26 37° NW 02:21:03 10° NNE
ASTEX 1 3.3 02:12:09 10° S 02:17:07 86° W 02:22:09 10° N
Okean O Rocket 4.0 02:14:28 10° NE 02:18:02 24° E 02:21:34 10° SSE
ADEOS 3.6 02:14:21 10° N 02:19:28 55° WNW 02:20:34 46° WSW
CZ-4B R/B 2.8 02:16:54 10° NNE 02:20:31 68° ESE 02:23:09 17° S
Cosmos 1461 2.9 02:20:38 49° SSW 02:21:31 68° SE 02:25:30 10° NE
STARLINK-46 4.3 02:22:02 31° SE 02:22:02 31° SE 02:24:26 10° E
STARLINK-67 4.4 02:22:48 29° ESE 02:22:48 29° ESE 02:24:26 10° E
USA 234 3.2 02:17:05 10° E 02:23:39 87° NNE 02:26:50 34° WNW
Lacrosse 5 3.8 02:20:01 10° S 02:24:10 26° SE 02:28:18 10° E
Cosmos 2112 Rocket 3.9 02:22:35 28° NW 02:25:27 75° WSW 02:30:45 10° SSE
PAYLOAD A 4.0 02:20:45 10° NNE 02:25:57 72° WNW 02:31:18 10° SSW
Lacrosse 5 rocket 0.9 02:25:55 79° NNW 02:25:58 79° N 02:29:34 10° ENE
SJ 16-02 3.7 02:23:46 10° SSE 02:27:18 24° E 02:30:51 10° NE
Cosmos 1356 Rocket 3.4 02:24:33 17° NNW 02:27:52 89° WSW 02:32:11 10° SSE
Cosmos 1777 Rocket 3.9 02:29:39 26° SW 02:32:38 72° WNW 02:37:53 10° NNE
Cosmos 1680 Rocket 3.5 02:31:32 30° NW 02:34:00 58° WSW 02:39:12 10° S
Meteor 2-2 Rocket 4.1 02:29:23 10° NNW 02:35:00 64° W 02:40:33 10° S
SKYMED 3 4.4 02:32:10 10° S 02:36:30 75° WSW 02:40:54 10° NNW
CZ-4C R/B 2.5 02:34:41 36° W 02:36:58 60° NNW 02:43:38 10° NE
COSMOS 2455 2.9 02:35:24 21° NW 02:39:34 81° NE 02:45:37 10° SE
Cosmos 1833 Rocket 2.7 02:35:07 10° SSW 02:40:44 82° ESE 02:46:23 10° NE
SL-16 R/B 2.4 02:36:03 15° NNW 02:40:49 70° NE 02:46:30 10° SE
Cosmos 1934 Rocket 4.0 02:35:18 10° SSW 02:41:31 58° WNW 02:47:50 10° N
Cosmos 1447 Rocket 4.4 02:35:39 10° NNW 02:41:58 68° W 02:48:16 10° S
Cosmos 2237 Rocket 4.1 02:39:23 11° NNW 02:43:12 20° NNE 02:47:19 10° ENE
NOSS 2-1 (E) 3.2 02:44:26 46° W 02:45:23 66° NNW 02:49:46 10° NE
MSX 4.0 02:41:05 10° N 02:46:36 48° WNW 02:51:48 11° SW
Cosmos 2360 Rocket 3.2 02:41:29 11° NNW 02:46:41 45° NE 02:52:07 10° ESE
NOSS 2-2 (D) 4.5 02:44:30 28° WNW 02:47:33 66° SW 02:54:54 10° SE
Cosmos 2151 4.4 02:46:41 10° SSE 02:50:42 40° E 02:54:46 10° NNE
H-2A R/B 3.0 02:47:50 10° N 02:52:05 42° WNW 02:54:17 24° WSW
Cosmos 1980 Rocket 2.5 02:49:41 25° NW 02:52:38 44° WSW 02:57:59 10° S
Cosmos 2322 Rocket 2.4 02:48:30 13° NNW 02:53:39 74° NE 02:59:19 10° SE
SL-4 R/B 2.8 02:53:22 27° WSW 02:55:48 53° S 03:00:30 10° ESE
COBE Rocket 4.4 02:54:16 10° SSW 02:59:07 41° W 03:03:57 10° NNW
NOSS 3-4 (A) 3.8 02:54:40 19° NW 02:59:48 83° NE 03:07:17 10° SE
NOSS 3-4 (C) 3.8 02:54:46 19° NW 02:59:55 82° NE 03:07:23 10° SE
SKYMED 2 3.8 02:56:28 10° S 03:00:39 46° W 03:04:53 10° NNW
ADEOS Rocket 4.3 02:56:30 10° SE 03:03:58 54° ENE 03:11:08 10° NNW
Cosmos 1153 Rocket 4.4 02:58:37 10° SSW 03:04:46 80° WNW 03:10:58 10° N
USA 116 3.4 03:04:26 10° S 03:07:32 49° W 03:10:00 16° NNW
Meteor 1-31 Rocket 3.2 03:04:41 10° N 03:08:15 38° WNW 03:11:50 10° SW
SL-27 R/B 3.5 03:05:13 10° S 03:08:24 45° ESE 03:11:37 10° NE
Cosmos 158 Rocket 4.0 03:04:22 15° NW 03:08:26 52° WSW 03:13:12 10° S
Cosmos 1328 Rocket 3.7 03:05:14 10° N 03:09:39 77° ENE 03:13:58 10° SSE
IDEFIX/ARIANE 42P 3.6 03:05:32 10° N 03:09:40 24° NW 03:10:59 22° WNW
Cosmos 1869 3.8 03:08:54 17° NW 03:11:27 35° W 03:15:02 10° SSW
Cosmos 2333 Rocket 3.6 03:07:14 10° NNW 03:12:29 34° NE 03:17:43 10° E
PAYLOAD B 4.3 03:08:44 10° NNE 03:14:18 82° ESE 03:19:49 10° SSW
Cosmos 1484 Rocket 2.8 03:12:20 10° N 03:16:16 59° WNW 03:20:12 10° SSW
Meteor 2-20 Rocket 4.5 03:10:30 10° NNW 03:16:34 59° W 03:22:35 10° S
CZ-4B R/B 3.5 03:14:34 10° NNE 03:19:56 71° ESE 03:25:20 10° S
Cosmos 2084 Rocket 3.7 03:15:32 10° SW 03:19:58 77° SE 03:24:27 10° NE
Cosmos 1605 Rocket 4.2 03:15:01 10° SW 03:20:58 47° WNW 03:26:54 10° N
Cosmos 2173 Rocket 4.0 03:16:21 10° S 03:22:38 87° ESE 03:28:53 10° NNE
Cosmos 1151 Rocket 3.0 03:19:25 10° NNW 03:23:51 86° W 03:28:14 10° S
Cosmos 1898 Rocket 3.7 03:22:27 10° SSW 03:27:41 80° ESE 03:33:00 10° NNE
Meteor PRIRODA 4.2 03:24:37 10° N 03:28:01 34° WNW 03:31:23 10° SW
Okean 3 Rocket 3.5 03:25:19 10° SSW 03:29:52 80° WNW 03:34:24 10° N
Helios 1A Rocket 2.9 03:25:49 10° NNE 03:29:59 84° WNW 03:34:05 10° SSW
ALOS 2.2 03:28:01 10° NNE 03:32:42 74° WNW 03:37:22 10° SSW
Cosmos 1697 Rocket 4.2 03:32:35 15° W 03:33:18 15° W 03:36:20 10° SW
Cosmos 1076 Rocket 4.0 03:29:55 10° SW 03:34:01 38° WNW 03:38:07 10° N
NOAA 6 4.0 03:29:55 10° NNE 03:35:06 89° WNW 03:40:14 10° SSW
Cosmos 1933 3.5 03:31:46 10° N 03:35:50 75° ENE 03:39:50 10° SSE
Cosmos 1408 Rocket 4.0 03:31:36 10° S 03:35:52 67° E 03:40:11 10° NNE
COSMOS 2406 3.9 03:33:36 12° W 03:38:30 35° NW 03:43:48 10° NNE
Cosmos 1606 3.0 03:35:06 10° N 03:38:53 67° ENE 03:42:40 10° SSE
Cosmos 2221 4.3 03:39:48 13° W 03:39:48 13° W 03:41:07 10° WSW
ATLAS 2AS CENTAUR R/B 3.0 03:32:41 11° NW 03:40:08 64° SW 03:47:14 10° SSE
FENGYUN 3A 3.6 03:35:17 10° NNE 03:40:44 74° WNW 03:46:08 10° SSW
PSLV R/B 4.4 03:38:01 10° N 03:41:25 32° WNW 03:44:52 10° SW
Cosmos 2219 Rocket 3.2 03:36:15 10° NNW 03:41:39 43° NE 03:47:01 10° ESE
SMAP 4.1 03:38:04 10° NNE 03:42:38 51° E 03:47:10 10° S
CZ-4B DEB 4.2 03:37:16 10° NNE 03:42:40 61° WNW 03:48:03 10° SW
Cosmos 1937 Rocket 3.6 03:39:53 10° SSW 03:45:02 82° ESE 03:50:13 10° NNE
Cosmos 1766 Rocket 3.5 03:40:57 10° SSW 03:45:17 72° WNW 03:49:39 10° N
Cosmos 1892 2.7 03:41:41 10° SSW 03:45:26 58° WNW 03:49:12 10° N
SAR-Lupe-2 3.7 03:43:22 10° SSE 03:46:57 76° ENE 03:50:32 10° NNW
NOSS 2-1 (C) 4.2 03:45:13 14° W 03:48:09 36° NNW 03:52:25 10° NE
COSMO-SKYMED 1 3.9 03:45:56 10° SW 03:49:04 19° W 03:52:13 10° NW
NOSS 2-1 (D) 4.2 03:48:25 13° W 03:51:30 36° NNW 03:55:49 10° NE
Cosmos 2228 Rocket 3.3 03:47:21 10° NNW 03:51:57 85° ENE 03:56:33 10° SSE
CZ-2C R/B 3.6 03:48:30 10° N 03:52:20 22° NW 03:56:05 10° WSW
Cosmos 2237 4.3 03:46:59 10° NW 03:52:46 88° SW 03:58:29 10° SSE
Cosmos 2058 3.6 03:49:07 10° SW 03:52:57 33° WNW 03:56:47 10° N
Okean O Rocket 1.7 03:50:26 10° N 03:54:42 55° WNW 03:58:56 10° SW
SL-16 R/B 4.0 03:50:42 10° NNW 03:55:04 22° NNE 03:59:25 10° ENE
CZ-4B R/B 4.2 03:52:55 10° NNW 03:55:15 16° WNW 03:57:34 10° W
STARLINK-67 3.5 03:53:40 11° W 03:56:02 36° SSW 03:58:31 10° ESE
Exosat Rocket 4.0 03:51:59 10° NNW 03:57:03 69° NE 04:03:08 10° SE
STARLINK-46 3.4 03:54:13 10° WSW 03:57:08 50° S 04:00:02 10° ESE
Cosmos 858 Rocket 4.5 03:53:01 10° SSW 03:58:13 80° WNW 04:03:28 10° NNE
Cosmos 2082 Rocket 2.4 03:53:31 10° WSW 03:59:05 51° NW 04:04:42 10° NNE
Cosmos 1315 Rocket 4.2 03:55:44 10° N 03:59:28 38° ENE 04:03:14 10° SE
Cosmos 494 Rocket 4.3 03:54:55 10° NNW 04:00:13 70° ENE 04:05:28 10° SE
Cosmos 1461 3.6 03:57:16 10° W 04:00:54 33° NNW 04:04:36 10° NE
H-2A R/B 3.0 03:57:11 10° NNE 04:00:58 70° ESE 04:04:39 10° S
In-Cosmos 22 Rocket 4.3 03:56:03 10° SW 04:01:16 52° WNW 04:06:39 10° N
METEOR-M 4.3 03:57:15 10° N 04:02:26 51° WNW 04:07:35 10° SW
COSMOS 2428 3.4 03:58:48 10° NNW 04:04:25 55° NE 04:10:02 10° SE
Lacrosse 5 rocket 1.0 04:01:35 10° WNW 04:05:14 78° N 04:08:50 10° E
SJ 16-02 1.4 04:01:16 10° SW 04:05:36 56° WNW 04:09:57 10° NNE
Lacrosse 5 2.2 04:01:30 10° WSW 04:06:33 70° SSE 04:11:37 10° ENE
Cosmos 1725 Rocket 4.0 04:00:37 10° SSW 04:06:53 83° W 04:13:16 10° N
USA 234 3.6 04:00:33 10° SE 04:07:00 58° SSW 04:13:27 10° WNW
Tsikada Rocket 4.1 04:03:21 10° NNW 04:09:40 61° W 04:15:55 10° S
Meteor 2-3 Rocket 4.4 04:05:01 10° S 04:10:41 63° E 04:16:25 10° NNE
Cosmos 1408 2.7 04:07:48 10° SSW 04:11:27 55° WNW 04:15:06 10° N
Cosmos 2298 Rocket 4.5 04:07:15 10° SSW 04:12:31 69° ESE 04:17:50 10° NNE
Cosmos 1459 Rocket 4.2 04:06:46 10° SW 04:12:44 49° WNW 04:18:50 10° N
Cosmos 2016 Rocket 4.0 04:06:57 10° SSW 04:13:09 64° WNW 04:19:29 10° N
YAOGAN 6 4.4 04:10:56 10° NNE 04:14:12 35° E 04:17:30 10° SSE
Radarsat Rocket 3.9 04:09:04 10° NNE 04:15:07 78° WNW 04:20:55 10° SSW
